Greeley, CO

7:38 AM MDT on June 28, 2017 (GMT -0600)
Greeley-Weld County

Weather History for KGXY - July, 2013

Change the Weather History Date:

Wednesday, July 10, 2013

  Actual Average Record
Temperature  
Mean Temperature 75 °F -  
Max Temperature 93 °F - 102 °F (2016)
Min Temperature 57 °F - 49 °F (1982)
Degree Days  
Heating Degree Days 0    
Month to date heating degree days  
Cooling Degree Days 10    
Month to date cooling degree days  
Growing Degree Days 25 (Base 50)    
Moisture  
Dew Point 54 °F    
Average Humidity 51    
Maximum Humidity 72    
Minimum Humidity 27    
Precipitation  
Precipitation 0.00 in - 0.69 in (1983)
Sea Level Pressure  
Sea Level Pressure 30.18 in    
Wind  
Wind Speed 8 mph (East)    
Max Wind Speed 23 mph    
Max Gust Speed 29 mph    
Visibility 10 miles    
Events      
T = Trace of Precipitation, MM = Missing Value Source: NWS Daily Summary

Daily Weather History Graph

Daily Weather History Graph

Search for Another Location

Airport or City:

Trip Planner

Search our weather history database for the weather conditions in past years. The results will help you decide how hot, cold, wet, or windy it might be!

Date:

Astronomy

Jul. 10, 2013 Rise Set
Actual Time 5:37 AM MDT 8:30 PM MDT
Civil Twilight 5:05 AM MDT 9:02 PM MDT
Nautical Twilight 4:24 AM MDT 9:43 PM MDT
Astronomical Twilight 3:36 AM MDT 10:30 PM MDT
Moon 8:01 AM MDT (7/10) 9:40 PM MDT (7/10)
Length of Visible Light 15h 57m
Length of Day
14h 52m
Waxing Crescent, 5% of the Moon is Illuminated
Jul 10
Waxing Crescent
Jul 15
First Quarter
Jul 22
Full
Jul 29
Last Quarter
Aug 6
New

Hourly Weather History & Observations

Time (MDT) Temp. Heat Index Dew Point Humidity Pressure Visibility Wind Dir Wind Speed Gust Speed Precip Events Conditions
12:15 AM 64.4 °F - 48.2 °F 56% 30.24 in 10.0 mi NNE 6.9 mph - N/A   Clear
12:35 AM 66.2 °F - 50.0 °F 56% 30.25 in 10.0 mi North 6.9 mph - N/A   Clear
12:55 AM 64.4 °F - 50.0 °F 59% 30.26 in 6.0 mi North 6.9 mph - N/A   Clear
1:15 AM 64.4 °F - 50.0 °F 59% 30.26 in 10.0 mi NNW 8.1 mph - N/A   Clear
1:35 AM 64.4 °F - 50.0 °F 59% 30.27 in 10.0 mi NNW 4.6 mph - N/A   Clear
1:55 AM 62.6 °F - 50.0 °F 63% 30.26 in 10.0 mi NNW 4.6 mph - N/A   Clear
2:15 AM 62.6 °F - 50.0 °F 63% 30.26 in 10.0 mi NW 8.1 mph - N/A   Clear
2:35 AM 60.8 °F - 50.0 °F 68% 30.26 in 10.0 mi WNW 6.9 mph - N/A   Clear
2:55 AM 60.8 °F - 50.0 °F 68% 30.25 in 10.0 mi NW 9.2 mph - N/A   Clear
3:15 AM 60.8 °F - 50.0 °F 68% 30.25 in 10.0 mi NW 5.8 mph - N/A   Clear
3:35 AM 60.8 °F - 50.0 °F 68% 30.25 in 10.0 mi NW 8.1 mph - N/A   Clear
3:55 AM 60.8 °F - 50.0 °F 68% 30.24 in 10.0 mi NNW 6.9 mph - N/A   Clear
4:15 AM 59.0 °F - 50.0 °F 72% 30.24 in 10.0 mi NNW 4.6 mph - N/A   Clear
4:35 AM 59.0 °F - 48.2 °F 67% 30.24 in 10.0 mi NNE 5.8 mph - N/A   Clear
4:55 AM 59.0 °F - 48.2 °F 67% 30.24 in 10.0 mi Calm Calm - N/A   Clear
5:15 AM 57.2 °F - 48.2 °F 72% 30.24 in 10.0 mi East 4.6 mph - N/A   Clear
5:35 AM 57.2 °F - 48.2 °F 72% 30.23 in 10.0 mi Calm Calm - N/A   Clear
5:55 AM 57.2 °F - 48.2 °F 72% 30.23 in 7.0 mi Calm Calm - N/A   Clear
6:15 AM 57.2 °F - 48.2 °F 72% 30.23 in 10.0 mi NE 4.6 mph - N/A   Clear
6:35 AM 60.8 °F - 50.0 °F 68% 30.23 in 10.0 mi Calm Calm - N/A   Clear
6:55 AM 64.4 °F - 51.8 °F 64% 30.23 in 10.0 mi Calm Calm - N/A   Clear
7:15 AM 64.4 °F - 53.6 °F 68% 30.23 in 10.0 mi ENE 4.6 mph - N/A   Clear
7:35 AM 66.2 °F - 53.6 °F 64% 30.24 in 9.0 mi East 5.8 mph - N/A   Clear
7:55 AM 69.8 °F - 55.4 °F 60% 30.24 in 10.0 mi East 6.9 mph - N/A   Clear
8:35 AM 71.6 °F - 55.4 °F 57% 30.25 in 10.0 mi East 8.1 mph - N/A   Clear
8:55 AM 73.4 °F - 55.4 °F 53% 30.25 in 10.0 mi ESE 9.2 mph - N/A   Clear
9:15 AM 75.2 °F - 55.4 °F 50% 30.25 in 10.0 mi SE 9.2 mph - N/A   Clear
9:35 AM 77.0 °F - 55.4 °F 47% 30.24 in 10.0 mi ESE 9.2 mph - N/A   Clear
9:55 AM 77.0 °F - 57.2 °F 50% 30.24 in 10.0 mi ESE 9.2 mph 16.1 mph N/A   Clear
10:15 AM 78.8 °F - 57.2 °F 47% 30.23 in 10.0 mi SE 9.2 mph - N/A   Clear
10:55 AM 80.6 °F 81.1 °F 59.0 °F 48% 30.24 in 10.0 mi ESE 8.1 mph - N/A   Clear
11:15 AM 80.6 °F 81.1 °F 59.0 °F 48% 30.23 in 10.0 mi East 12.7 mph 16.1 mph N/A   Partly Cloudy
11:35 AM 82.4 °F 82.9 °F 60.8 °F 48% 30.21 in 10.0 mi ESE 15.0 mph 20.7 mph N/A   Clear
11:55 AM 82.4 °F 82.9 °F 60.8 °F 48% 30.20 in 10.0 mi ESE 20.7 mph - N/A   Clear
12:35 PM 80.6 °F 81.5 °F 60.8 °F 51% 30.21 in 10.0 mi SSE 10.4 mph - N/A   Clear
1:15 PM 82.4 °F 82.9 °F 60.8 °F 48% 30.18 in 10.0 mi SE 12.7 mph 18.4 mph N/A   Clear
1:35 PM 82.4 °F 82.9 °F 60.8 °F 48% 30.19 in 10.0 mi ENE 6.9 mph - N/A   Clear
1:55 PM 84.2 °F 84.4 °F 60.8 °F 45% 30.16 in 10.0 mi ESE 9.2 mph - N/A   Clear
2:15 PM 84.2 °F 84.4 °F 60.8 °F 45% 30.14 in 10.0 mi East 10.4 mph - N/A   Clear
2:35 PM 87.8 °F 87.6 °F 60.8 °F 40% 30.13 in 10.0 mi East 8.1 mph - N/A   Clear
2:55 PM 89.6 °F 89.5 °F 60.8 °F 38% 30.12 in 10.0 mi ESE 10.4 mph - N/A   Clear
3:15 PM 91.4 °F 91.4 °F 60.8 °F 36% 30.11 in 10.0 mi ESE 9.2 mph - N/A   Clear
3:35 PM 91.4 °F 91.4 °F 60.8 °F 36% 30.10 in 10.0 mi East 9.2 mph 18.4 mph N/A   Clear
3:55 PM 91.4 °F 90.7 °F 59.0 °F 34% 30.09 in 10.0 mi East 10.4 mph 16.1 mph N/A   Clear
4:15 PM 93.2 °F 91.9 °F 57.2 °F 30% 30.08 in 10.0 mi East 9.2 mph 17.3 mph N/A   Clear
4:35 PM 91.4 °F 89.9 °F 57.2 °F 31% 30.08 in 10.0 mi SE 17.3 mph - N/A   Clear
4:55 PM 91.4 °F 89.1 °F 53.6 °F 28% 30.08 in 10.0 mi SSE 19.6 mph 25.3 mph N/A   Clear
5:15 PM 91.4 °F 89.1 °F 53.6 °F 28% 30.08 in 10.0 mi SSE 16.1 mph 21.9 mph N/A   Clear
5:35 PM 89.6 °F 87.3 °F 53.6 °F 29% 30.07 in 10.0 mi SSE 20.7 mph 28.8 mph N/A   Clear
5:55 PM 89.6 °F - 51.8 °F 27% 30.07 in 10.0 mi SSE 23.0 mph 27.6 mph N/A   Clear
6:15 PM 87.8 °F - 51.8 °F 29% 30.06 in 10.0 mi SSE 20.7 mph 28.8 mph N/A   Clear
6:55 PM 87.8 °F - 51.8 °F 29% 30.04 in 10.0 mi South 13.8 mph 23.0 mph N/A   Clear
7:35 PM 84.2 °F - 51.8 °F 33% 30.07 in 10.0 mi ESE 10.4 mph - N/A   Clear
7:55 PM 82.4 °F 81.4 °F 53.6 °F 37% 30.09 in 10.0 mi SE 12.7 mph 20.7 mph N/A   Clear
8:15 PM 80.6 °F - 51.8 °F 37% 30.10 in 10.0 mi SE 16.1 mph - N/A   Clear
8:35 PM 78.8 °F - 51.8 °F 39% 30.10 in 10.0 mi SE 17.3 mph 25.3 mph N/A   Clear
8:55 PM 75.2 °F - 51.8 °F 44% 30.10 in 10.0 mi SE 11.5 mph - N/A   Clear
9:15 PM 75.2 °F - 51.8 °F 44% 30.11 in 10.0 mi SE 10.4 mph - N/A   Clear
9:35 PM 71.6 °F - 51.8 °F 50% 30.13 in 10.0 mi ESE 10.4 mph - N/A   Clear
9:55 PM 71.6 °F - 51.8 °F 50% 30.13 in 10.0 mi ESE 6.9 mph - N/A   Clear
10:15 PM 69.8 °F - 51.8 °F 53% 30.13 in 10.0 mi East 9.2 mph - N/A   Clear
10:35 PM 69.8 °F - 51.8 °F 53% 30.14 in 10.0 mi East 9.2 mph - N/A   Clear
11:15 PM 66.2 °F - 51.8 °F 60% 30.13 in 10.0 mi ESE 10.4 mph - N/A   Clear
11:55 PM 66.2 °F - 51.8 °F 60% 30.14 in 10.0 mi ESE 10.4 mph - N/A   Clear